weather.gov     
National Weather Service

Regional Weather Roundup
NWS Homepage
This page is being discontinued on March 12, 2014.
The same data is available at this site. Please update your bookmarks.
Thank you, and we apologize for the inconvenience.
Please send an email to SR-SRH.Webmaster@noaa.gov with any concerns.


Current Version
Previous Version:    01  02  03  04  05  06  07  08  09  10  11  12  13  14  15  16  17  18  19  20  21  22  23  24  25  26  
[Printable]
385
ASUS45 KBOI 010910
RWRID
WEATHER ROUNDUP FOR IDAHO
NATIONAL WEATHER SERVICE BOISE ID
300 AM MDT FRI AUG 01 2014

NOTE: "FAIR" INDICATES FEW OR NO CLOUDS BELOW 12000 FEET
WITH NO SIGNIFICANT WEATHER AND/OR OBSTRUCTIONS TO VISIBILITY

IDZ012-014-011000-
SOUTHWEST IDAHO


CITY           SKY/WX    TMP DP  RH WIND       PRES   REMARKS
BOISE          MOCLDY    71  49  45 SE8       30.07R
CALDWELL       MOCLDY    70  48  46 W8        30.09R
MOUNTAIN HOME  PTCLDY    69  47  44 CALM      30.08R
$$

IDZ016-017-011000-
SOUTHCENTRAL IDAHO


CITY           SKY/WX    TMP DP  RH WIND       PRES   REMARKS
BURLEY         MOCLDY    61  52  72 CALM      30.12F
JEROME         MOCLDY    66  49  54 E8        30.13F
TWIN FALLS     MOCLDY    66  43  43 S12       30.13F
$$

IDZ019>023-011000-
SOUTHEAST IDAHO


CITY           SKY/WX    TMP DP  RH WIND       PRES   REMARKS
IDAHO FALLS    PTCLDY    56  48  74 N8        30.18S
POCATELLO      CLEAR     63  50  62 N7        30.16R
REXBURG        PTCLDY    57  47  69 NE6       30.19S
$$

IDZ006-010-011-018-031-032-011000-
CENTRAL IDAHO MOUNTAINS


CITY           SKY/WX    TMP DP  RH WIND       PRES   REMARKS
MCCALL         CLOUDY    64  47  53 VRB3      30.20F
HAILEY         MOCLDY    61  52  72 NW10      30.25S
STANLEY          N/A     49  44  83 SE3       30.35R
SALMON         CLOUDY    63  48  59 CALM      30.17S
CHALLIS        CLOUDY    62  46  55 CALM      30.24S
$$

IDZ002-004-006-007-026-011000-
NORTHERN IDAHO


CITY           SKY/WX    TMP DP  RH WIND       PRES   REMARKS
LEWISTON       CLOUDY    82  45  27 SE3       29.97F
LOWELL           N/A     64  55  72 N3        30.05S
COEUR D`ALENE  MOCLDY    66  48  52 SE5       30.03R
MULLAN PASS    MOCLDY    68  30  24 NW5       30.29S
$$




U.S. Dept. of Commerce
NOAA National Weather Service
1325 East West Highway
Silver Spring, MD 20910
E-mail: w-nws.webmaster@noaa.gov
Page last modified: May 16, 2007
NATIONAL WEATHER SERVICE: for Safety, for Work, for Fun - FOR LIFE